Weather History for KBAD - October, 2013

Change the Weather History Date:

Sunday, October 6, 2013

  Actual Average Record
Temperature  
Mean Temperature 66 °F -  
Max Temperature 76 °F 75 °F 90 °F (2007)
Min Temperature 56 °F 56 °F 42 °F (2010)
Cooling Degree Days 1    
Growing Degree Days 16 (Base 50)    
Moisture  
Dew Point 48 °F    
Average Humidity 61    
Maximum Humidity 82    
Minimum Humidity 26    
Precipitation  
Precipitation 0.00 in - - ()
Sea Level Pressure  
Sea Level Pressure 30.02 in    
Wind  
Wind Speed 10 mph (NNW)    
Max Wind Speed 17 mph    
Max Gust Speed -    
Visibility 10 miles    
Events      
Averages and records for this station are not official NWS values.
T = Trace of Precipitation, MM = Missing Value Source: NWS Daily Summary

Daily Weather History Graph

Daily Weather History Graph

Search for Another Location

Airport or City:

Trip Planner

Search our weather history database for the weather conditions in past years. The results will help you decide how hot, cold, wet, or windy it might be!

Date:

Astronomy

Oct. 06, 2013 Rise Set
Actual Time 7:12 AM CDT 6:52 PM CDT
Civil Twilight 6:47 AM CDT 7:17 PM CDT
Nautical Twilight 6:19 AM CDT 7:45 PM CDT
Astronomical Twilight 5:50 AM CDT 8:14 PM CDT
Moon 8:49 AM CDT (10/6) 8:01 PM CDT (10/6)
Length of Visible Light 12h 29m
Length of Day
11h 40m
Waxing Crescent, 3% of the Moon is Illuminated
Oct 6
Waxing Crescent
Oct 11
First Quarter
Oct 18
Full
Oct 26
Last Quarter
Nov 3
New

Hourly Weather History & Observations

Time (CDT) Temp. Dew Point Humidity Pressure Visibility Wind Dir Wind Speed Gust Speed Precip Events Conditions
12:58 AM 61.3 °F 55.8 °F 82% 29.98 in 10.0 mi NNW 11.5 mph - N/A   Mostly Cloudy
1:28 AM 60.8 °F 55.4 °F 82% 29.98 in 10.0 mi NW 13.8 mph - N/A   Overcast
1:58 AM 59.7 °F 53.8 °F 81% 29.99 in 10.0 mi NNW 12.7 mph - N/A   Mostly Cloudy
2:08 AM 59.0 °F 53.6 °F 82% 29.98 in 10.0 mi NNW 12.7 mph - N/A   Partly Cloudy
2:58 AM 58.6 °F 53.2 °F 82% 30.00 in 10.0 mi NNW 11.5 mph - N/A   Clear
3:58 AM 57.6 °F 51.3 °F 79% 30.01 in 10.0 mi NNW 12.7 mph - N/A   Clear
4:58 AM 56.8 °F 49.1 °F 75% 30.02 in 10.0 mi North 6.9 mph - N/A   Scattered Clouds
5:58 AM 57.4 °F 49.8 °F 76% 30.02 in 10.0 mi NNW 5.8 mph - N/A   Mostly Cloudy
6:58 AM 57.9 °F 51.1 °F 78% 30.03 in 10.0 mi North 5.8 mph - N/A   Overcast
7:58 AM 57.4 °F 51.6 °F 81% 30.05 in 10.0 mi North 6.9 mph - N/A   Scattered Clouds
8:58 AM 59.5 °F 50.5 °F 72% 30.06 in 10.0 mi North 8.1 mph - N/A   Clear
9:58 AM 62.4 °F 49.6 °F 63% 30.08 in 10.0 mi NNW 10.4 mph - N/A   Partly Cloudy
10:58 AM 65.5 °F 48.4 °F 54% 30.08 in 10.0 mi NNW 9.2 mph - N/A   Partly Cloudy
11:58 AM 67.8 °F 46.6 °F 46% 30.06 in 10.0 mi NW 8.1 mph - N/A   Scattered Clouds
12:58 PM 72.3 °F 43.3 °F 35% 30.04 in 10.0 mi NW 9.2 mph - N/A   Clear
1:58 PM 74.1 °F 37.0 °F 26% 30.00 in 10.0 mi NNW 17.3 mph - N/A   Clear
2:58 PM 75.2 °F 43.2 °F 32% 29.99 in 10.0 mi NW 10.4 mph - N/A   Clear
3:58 PM 76.1 °F 41.2 °F 29% 29.97 in 10.0 mi NW 17.3 mph - N/A   Clear
4:58 PM 75.2 °F 40.8 °F 29% 29.96 in 10.0 mi NW 13.8 mph - N/A   Clear
5:58 PM 72.7 °F 41.7 °F 33% 29.97 in 10.0 mi NNW 13.8 mph - N/A   Clear
6:58 PM 68.0 °F 45.3 °F 44% 30.00 in 10.0 mi NNW 10.4 mph - N/A   Clear
7:58 PM 62.8 °F 48.0 °F 59% 30.01 in 10.0 mi NNW 4.6 mph - N/A   Clear
8:58 PM 62.4 °F 47.8 °F 59% 30.03 in 10.0 mi North 8.1 mph - N/A   Clear
9:58 PM 59.9 °F 47.7 °F 64% 30.05 in 10.0 mi North 4.6 mph - N/A   Clear
10:58 PM 57.9 °F 47.8 °F 69% 30.05 in 10.0 mi North 3.5 mph - N/A   Clear
11:58 PM 58.6 °F 48.2 °F 68% 30.06 in 10.0 mi North 2.3 mph - N/A   Clear